Location: Karcze
(52.0945°N, 22.4786°E)
Time: 11:53:12
(UTC+00:00)

SL-8 R/B - Pass Details

Date: 14 July 2020
Orbit: 656 x 668 km, 48.4° (Epoch: 07 August)

Event Time Altitude Azimuth Distance (km) Brightness Sun altitude
Exits shadow 00:08:40 21° 208° (SSW) 1,484 4.9 -13.5°
Maximum altitude 00:11:11 35° 157° (SSE) 1,063 4.4 -13.4°
Drops below altitude 10° 00:15:33 10° 92° (E) 2,082 6.5 -13.1°
Sets 00:18:02 0° 83° (E) 2,994 7.5 -13.0°
